sat.trackr.live / text

‹ back to catalog

STARLINK-30895

NORAD 58418 · 2023-180S

PAYLOAD ACTIVE UNKNOWN

§ Identity

Operator
Country
US
Launch date
2023-11-22
Launch site
AFETR
Launch vehicle
Mass (kg)
RCS (m²)

Purposes: comms

External: N2YO · Heavens-Above · Gunter

§ Orbital elements

Epoch: 2026-05-24T23:23:08.630016Z

Period
94.27 min
Inclination
43.0024°
Eccentricity
0.0000969
Mean motion
15.27563714 rev/d
Perigee alt
482.4 km
Apogee alt
483.8 km
Semi-major
6,861.2 km
B*
-5.5046e-4
RAAN
341.6585°
Arg perigee
271.5770°
Mean anomaly
88.4971°
Rev number
13,918

§ Raw data

STARLINK-308951 58418U 23180S   26144.97440544 -.00015370  00000+0 -55046-3 0  99942 58418  43.0024 341.6585 0000969 271.5770  88.4971 15.27563714139186

JSON: /api/v1/satellites/58418 · /tle

For live sub-satellite position, see the globe view (requires WebGL).

§ Visibility from observer

Set your observer location to see the next 7 days of passes ≥ 10°. The values pass through the URL so the page stays shareable.

No JS? Fill the form by hand. The geolocation button needs JavaScript.